[[{"header":{"parameterUnit":"m.s-1","parameterCategory":1,"la1":30.2991,"la2":30.254,"lo1":-89.0895,"lo2":-89.0444,"dy":0.0017,"dx":0.0017,"nx":28,"ny":28,"refTime":"2025-01-24T03:00:00:Z","depth":0,"parameterNumber":2,"parameterNumberName":"U-component_of_WINDS"},"data":[0,0,0,0,0,0,0,0,0,0,0,0,0,0,0,0,0,0,0,0,0,0,0,0,0,0,0,0,0,0,0,0,0,0,0,0,0,0,0,0,0,0,0,0,0,0,0,0,0,0,0,0,0,0,0,0,0,0,-3.727,-3.7269,0,-3.7194,-3.7193,-3.7192,-3.7057,-3.7054,-3.7052,-3.7049,-3.6974,-3.6974,-3.6974,0,0,0,0,0,0,0,0,0,0,0,0,0,-3.7301,-3.7301,-3.727,-3.7269,-3.7268,-3.7194,-3.7193,-3.7192,-3.7057,-3.7054,-3.7051,-3.7048,-3.6974,-3.6974,-3.6974,0,0,0,0,0,0,0,0,0,0,0,0,0,-3.7263,-3.7301,-3.727,-3.7192,-3.7184,-3.7194,-3.7193,-3.7192,-3.7058,-3.7054,-3.705,-3.7047,-3.6973,-3.6974,-3.6975,-3.7056,0,0,-3.6976,-3.6977,0,0,0,0,0,0,0,0,-3.7265,-3.7262,-3.7204,-3.7197,-3.7188,-3.7131,-3.7176,-3.7146,-3.7059,-3.7106,-3.7049,-3.7045,-3.7029,-3.7025,-3.7019,-3.7052,-3.7049,-3.6976,-3.6977,-3.6977,-3.6977,0,0,0,0,0,0,0,-3.7268,-3.7264,-3.724,-3.7204,-3.7194,-3.7162,-3.7152,-3.717,-3.709,-3.7102,-3.7092,-3.7084,-3.7024,-3.7019,-3.7017,-3.7048,-3.6976,-3.6977,-3.6977,-3.6977,-3.7144,-3.7148,0,0,0,0,0,0,-3.7282,-3.7267,-3.7242,-3.7237,-3.7218,-3.7164,-3.7153,-3.7153,-3.709,-3.7076,-3.7088,-3.7078,-3.702,-3.7016,-3.7013,-3.7104,-3.6977,-3.6977,-3.6978,-3.714,-3.7145,-3.7149,0,0,0,0,0,0,-3.7283,-3.7281,-3.7245,-3.725,-3.7243,-3.7168,-3.7169,-3.7154,-3.7148,-3.7079,-3.7065,-3.7097,-3.7017,-3.7013,-3.7046,-3.7099,-3.6978,-3.6978,-3.7135,-3.7142,-3.7147,-3.7286,0,0,0,0,0,0,-3.7284,-3.7282,-3.7311,-3.7251,-3.7243,-3.7279,-3.7172,-3.7155,-3.715,-3.7137,-3.7084,-3.7071,-3.7013,-3.7046,-3.7047,-3.7098,-3.6979,-3.713,-3.7138,-3.7145,-3.7276,-3.7296,-3.7313,0,0,0,0,0,-3.7286,-3.7353,-3.7313,-3.7311,-3.7278,-3.7282,-3.7277,-3.7208,-3.7155,-3.7183,-3.714,-3.7073,-3.7094,-3.7051,-3.705,-3.7102,-3.7126,-3.7136,-3.7145,-3.7268,-3.7292,-3.7312,0,0,0,0,0,0,-3.7421,-3.7344,-3.7298,-3.7348,-3.7323,-3.7259,-3.7293,-3.7236,-3.7226,-3.7214,-3.713,-3.7119,-3.7164,-3.7137,-3.709,-3.7178,-3.71,-3.711,-3.7194,-3.7216,-3.7234,-3.7239,-3.6979,0,0,0,0,0,-3.7457,-3.7466,-3.7398,-3.7449,-3.7438,-3.7369,-3.7368,-3.7318,-3.7288,-3.7276,-3.7234,-3.7209,-3.721,-3.7212,-3.7208,-3.7273,-3.7259,-3.7309,-3.7327,-3.7342,-3.7351,-3.7383,-3.7404,-3.718,-3.718,-3.7179,0,0,-3.753,-3.7489,-3.75,-3.7475,-3.7449,-3.7461,-3.736,-3.7377,-3.7386,-3.7279,-3.7307,-3.7277,-3.7243,-3.7292,-3.7312,-3.7271,-3.7411,-3.7354,-3.7367,-3.7367,-3.7395,-3.7416,-3.7435,-3.7186,-3.7185,-3.7184,0,0,-3.767,-3.764,-3.7679,-3.7655,-3.7618,-3.7571,-3.7581,-3.7527,-3.7502,-3.753,-3.745,-3.746,-3.7463,-3.7442,-3.7432,-3.7567,-3.7506,-3.7569,-3.7664,-3.7696,-3.7714,-3.7729,-3.7777,-3.7795,-3.7578,-3.7579,-3.7579,0,-3.7766,-3.7779,-3.7706,-3.7728,-3.772,-3.7625,-3.7664,-3.7645,-3.7609,-3.7606,-3.7561,-3.7564,-3.7534,-3.7577,-3.7611,-3.7606,-3.7615,-3.7573,-3.7717,-3.7732,-3.7745,-3.779,-3.7808,-3.7586,-3.7585,-3.7585,-3.7584,0,-3.7899,-3.7911,-3.7947,-3.7914,-3.791,-3.7941,-3.7873,-3.7879,-3.783,-3.7789,-3.782,-3.7781,-3.7769,-3.7776,-3.7729,-3.7813,-3.7789,-3.7733,-3.7652,-3.7776,-3.7816,-3.7832,-3.7597,-3.7595,-3.7592,-3.759,0,0,-3.8118,-3.8046,-3.806,-3.8045,-3.7998,-3.8005,-3.8034,-3.8021,-3.8027,-3.8007,-3.8028,-3.8034,-3.7982,-3.7971,-3.792,-3.7949,-3.8059,-3.7889,-3.7887,-3.7921,-3.815,-3.8191,-3.8212,-3.8019,-3.8022,-3.8025,-3.8152,0,-3.8246,-3.8287,-3.8223,-3.828,-3.829,-3.8201,-3.8226,-3.8201,-3.8164,-3.8168,-3.8128,-3.8133,-3.8064,-3.8057,-3.8082,-3.804,-3.8103,-3.8031,-3.8038,-3.8039,-3.8047,-3.8233,-3.8277,-3.8399,-3.8168,-3.817,-3.8172,0,-3.8399,-3.8386,-3.8444,-3.8395,-3.8396,-3.8419,-3.8403,-3.8409,-3.8379,-3.8351,-3.834,-3.8281,-3.8306,-3.823,-3.8264,-3.8216,-3.8216,-3.8196,-3.8199,-3.8195,-3.8111,-3.8233,-3.8436,-3.8454,-3.8197,-3.8195,-3.8193,0,-3.8552,-3.8549,-3.8583,-3.8572,-3.8516,-3.8534,-3.8512,-3.8479,-3.8476,-3.8464,-3.8461,-3.8452,-3.8447,-3.8442,-3.8383,-3.8333,-3.8424,-3.8343,-3.8401,-3.8402,-3.8421,-3.842,-3.8625,-3.8426,-3.8425,-3.8425,-3.8425,0,-3.87,-3.8738,-3.865,-3.8671,-3.8712,-3.864,-3.8683,-3.8652,-3.8624,-3.8638,-3.8562,-3.8577,-3.8499,-3.8506,-3.8461,-3.8495,-3.8494,-3.8472,-3.8459,-3.8477,-3.848,-3.8474,-3.8463,-3.843,-3.8429,-3.8428,-3.8427,0,-3.8875,-3.8818,-3.8849,-3.8794,-3.8781,-3.8814,-3.8767,-3.8785,-3.8745,-3.8764,-3.8764,-3.8702,-3.8707,-3.8648,-3.8641,-3.8611,-3.8666,-3.8639,-3.8675,-3.8666,-3.8726,-3.8721,-3.8933,-3.8957,-3.8744,-3.8747,-3.8748,0,-3.8971,-3.8998,-3.8947,-3.8951,-3.8932,-3.894,-3.8937,-3.8869,-3.8869,-3.8839,-3.8861,-3.8859,-3.8854,-3.8866,-3.8821,-3.8816,-3.8787,-3.8862,-3.8785,-3.8803,-3.8786,-3.8784,-3.8787,-3.8877,-3.888,-3.8882,-3.8884,0,-3.9148,-3.912,-3.9117,-3.9107,-3.9106,-3.9095,-3.9078,-3.9086,-3.9012,-3.9017,-3.902,-3.9017,-3.9011,-3.901,-3.8997,-3.8975,-3.8918,-3.8909,-3.8921,-3.8939,-3.8958,-3.8947,-3.8717,-3.8903,-3.8901,-3.89,-3.8899,-3.8898,-3.9285,-3.9306,-3.9273,-3.9274,-3.9255,-3.9243,-3.9256,-3.9219,-3.9221,-3.921,-3.9171,-3.9182,-3.9154,-3.913,-3.9114,-3.9123,-3.9086,-3.9105,-3.9109,-3.9114,-3.9125,-3.896,-3.912,-3.912,-3.9119,-3.9119,-3.9118,0,-3.9457,-3.9432,-3.9434,-3.9414,-3.9416,-3.9363,-3.9343,-3.9348,-3.9358,-3.9337,-3.9334,-3.934,-3.934,-3.9296,-3.9291,-3.9306,-3.928,-3.9307,-3.9304,-3.93,-3.9158,-3.9147,-3.9329,-3.9329,-3.9329,-3.9329,-3.9329,-3.9329,-3.9546,-3.9577,-3.9546,-3.9568,-3.9543,-3.9553,-3.9546,-3.9535,-3.9517,-3.9527,-3.9526,-3.9498,-3.9468,-3.9461,-3.946,-3.9447,-3.9448,-3.9484,-3.9462,-3.933,-3.931,-3.929,-3.9279,-3.9485,-3.9486,-3.9602,-3.9603,-3.9604]},{"header":{"parameterUnit":"m.s-1","parameterCategory":1,"la1":30.2991,"la2":30.254,"lo1":-89.0895,"lo2":-89.0444,"dy":0.0017,"dx":0.0017,"nx":28,"ny":28,"refTime":"2025-01-24T03:00:00:Z","depth":0,"parameterNumber":3,"parameterNumberName":"V-component_of_WINDS"},"data":[0,0,0,0,0,0,0,0,0,0,0,0,0,0,0,0,0,0,0,0,0,0,0,0,0,0,0,0,0,0,0,0,0,0,0,0,0,0,0,0,0,0,0,0,0,0,0,0,0,0,0,0,0,0,0,0,0,0,-0.3489,-0.3489,0,-0.3485,-0.3485,-0.3485,-0.3419,-0.3417,-0.3416,-0.3414,-0.3414,-0.3416,-0.3417,0,0,0,0,0,0,0,0,0,0,0,0,0,-0.3444,-0.3445,-0.3489,-0.3489,-0.3489,-0.3485,-0.3485,-0.3485,-0.3419,-0.3417,-0.3415,-0.3413,-0.3414,-0.3416,-0.3418,0,0,0,0,0,0,0,0,0,0,0,0,0,-0.3454,-0.3445,-0.3489,-0.3456,-0.3453,-0.3485,-0.3485,-0.3485,-0.342,-0.3417,-0.3415,-0.3412,-0.3413,-0.3416,-0.3418,-0.3483,0,0,-0.3425,-0.3426,0,0,0,0,0,0,0,0,-0.3454,-0.3456,-0.3461,-0.3458,-0.3455,-0.345,-0.3469,-0.3484,-0.342,-0.3432,-0.3414,-0.3411,-0.3429,-0.3429,-0.3434,-0.3483,-0.3483,-0.3425,-0.3427,-0.3428,-0.3428,0,0,0,0,0,0,0,-0.3453,-0.3456,-0.3488,-0.3461,-0.3457,-0.3442,-0.3441,-0.3471,-0.3445,-0.3431,-0.3426,-0.3427,-0.3426,-0.3432,-0.3434,-0.3483,-0.3425,-0.3427,-0.3429,-0.343,-0.3584,-0.3586,0,0,0,0,0,0,-0.3456,-0.3455,-0.3488,-0.3487,-0.3448,-0.3445,-0.3443,-0.3454,-0.3444,-0.344,-0.3429,-0.3424,-0.3429,-0.3431,-0.3434,-0.3508,-0.3428,-0.343,-0.3431,-0.3581,-0.3585,-0.3587,0,0,0,0,0,0,-0.3456,-0.346,-0.3488,-0.347,-0.3472,-0.3448,-0.3461,-0.3455,-0.3461,-0.3442,-0.3438,-0.3439,-0.3428,-0.343,-0.3471,-0.3507,-0.3431,-0.3433,-0.3578,-0.3582,-0.3586,-0.3659,0,0,0,0,0,0,-0.3455,-0.346,-0.3484,-0.3471,-0.3474,-0.3524,-0.3463,-0.3457,-0.3465,-0.3458,-0.3451,-0.3448,-0.3426,-0.3467,-0.3473,-0.3509,-0.3435,-0.3575,-0.358,-0.3585,-0.3653,-0.3665,-0.3675,0,0,0,0,0,-0.3453,-0.3506,-0.3485,-0.349,-0.3503,-0.3526,-0.3528,-0.35,-0.3468,-0.3492,-0.348,-0.3448,-0.3503,-0.3472,-0.3478,-0.3515,-0.3572,-0.3578,-0.3584,-0.3648,-0.3662,-0.3675,0,0,0,0,0,0,-0.3525,-0.3504,-0.3481,-0.353,-0.3531,-0.3515,-0.3545,-0.3517,-0.3527,-0.3521,-0.3487,-0.3487,-0.3532,-0.3528,-0.3494,-0.3577,-0.3532,-0.3539,-0.3578,-0.3592,-0.3603,-0.3602,-0.3437,0,0,0,0,0,-0.3547,-0.3566,-0.3547,-0.3593,-0.3594,-0.357,-0.3579,-0.3557,-0.3557,-0.3557,-0.3548,-0.355,-0.3567,-0.3579,-0.3594,-0.3652,-0.365,-0.3681,-0.3692,-0.3701,-0.3708,-0.3737,-0.375,-0.3607,-0.3607,-0.3607,0,0,-0.3592,-0.3582,-0.3597,-0.3607,-0.3605,-0.3626,-0.357,-0.3596,-0.3612,-0.3561,-0.3598,-0.3592,-0.3591,-0.364,-0.3662,-0.3638,-0.3746,-0.3708,-0.3716,-0.3718,-0.3744,-0.3758,-0.377,-0.3611,-0.3611,-0.361,0,0,-0.3684,-0.368,-0.3716,-0.3715,-0.3711,-0.3694,-0.3703,-0.3692,-0.3685,-0.3721,-0.3683,-0.3702,-0.3733,-0.3734,-0.3739,-0.3831,-0.3801,-0.3837,-0.3894,-0.3923,-0.3934,-0.3944,-0.3976,-0.3988,-0.3844,-0.3844,-0.3844,0,-0.3741,-0.3771,-0.3739,-0.3767,-0.3772,-0.3726,-0.3763,-0.3763,-0.3766,-0.3771,-0.3745,-0.3781,-0.3778,-0.3826,-0.3848,-0.3854,-0.3863,-0.3837,-0.3935,-0.3944,-0.3953,-0.3983,-0.3995,-0.3848,-0.3848,-0.3847,-0.3847,0,-0.3841,-0.3862,-0.3893,-0.3894,-0.3903,-0.3936,-0.3909,-0.3922,-0.39,-0.3887,-0.3924,-0.3918,-0.393,-0.394,-0.392,-0.3985,-0.3971,-0.394,-0.3894,-0.3971,-0.3999,-0.4011,-0.3854,-0.3853,-0.3851,-0.385,0,0,-0.3979,-0.3961,-0.3973,-0.3972,-0.3964,-0.3981,-0.4011,-0.4022,-0.4033,-0.4037,-0.4061,-0.4088,-0.4059,-0.4064,-0.4043,-0.4069,-0.4141,-0.4035,-0.4034,-0.4054,-0.4212,-0.4235,-0.4248,-0.4122,-0.4124,-0.4125,-0.4212,0,-0.4067,-0.4117,-0.4089,-0.4143,-0.4162,-0.4118,-0.4144,-0.4143,-0.4131,-0.4146,-0.4134,-0.4152,-0.4113,-0.4116,-0.4139,-0.4127,-0.4172,-0.4121,-0.4145,-0.4146,-0.4145,-0.4263,-0.4287,-0.4369,-0.4223,-0.4224,-0.4226,0,-0.4177,-0.4183,-0.4238,-0.4225,-0.4232,-0.4257,-0.4263,-0.4279,-0.4276,-0.4266,-0.4271,-0.4244,-0.4274,-0.4228,-0.4268,-0.4234,-0.4242,-0.4238,-0.424,-0.4241,-0.419,-0.4266,-0.4394,-0.4407,-0.4243,-0.4241,-0.424,0,-0.4271,-0.4293,-0.4328,-0.4329,-0.4316,-0.4334,-0.4329,-0.4324,-0.4331,-0.4338,-0.4343,-0.4354,-0.4359,-0.4369,-0.4345,-0.4314,-0.4389,-0.4342,-0.4382,-0.4382,-0.4399,-0.4398,-0.453,-0.4406,-0.4406,-0.4406,-0.4405,0,-0.4372,-0.4408,-0.437,-0.4392,-0.443,-0.4398,-0.4437,-0.4428,-0.4424,-0.4444,-0.4407,-0.4427,-0.4395,-0.4412,-0.4394,-0.443,-0.4433,-0.4426,-0.4421,-0.4429,-0.4429,-0.4433,-0.4427,-0.4409,-0.4408,-0.4407,-0.4407,0,-0.4483,-0.4459,-0.4495,-0.4478,-0.4475,-0.4504,-0.449,-0.451,-0.4496,-0.4521,-0.4525,-0.4503,-0.452,-0.4498,-0.4515,-0.4502,-0.4551,-0.4538,-0.4551,-0.4547,-0.4588,-0.4584,-0.4726,-0.4743,-0.4609,-0.4611,-0.4612,0,-0.4549,-0.4575,-0.456,-0.457,-0.4567,-0.4584,-0.4591,-0.456,-0.457,-0.4568,-0.4588,-0.4603,-0.4612,-0.4643,-0.4629,-0.4641,-0.4627,-0.4676,-0.4629,-0.4636,-0.4627,-0.4625,-0.4628,-0.4686,-0.4687,-0.4689,-0.469,0,-0.4667,-0.4654,-0.4665,-0.4672,-0.4681,-0.4685,-0.4687,-0.4697,-0.4665,-0.4678,-0.4694,-0.4702,-0.4717,-0.4732,-0.474,-0.4737,-0.4708,-0.4704,-0.4714,-0.4722,-0.4729,-0.4725,-0.4577,-0.4701,-0.47,-0.4699,-0.4699,-0.4698,-0.4757,-0.4777,-0.477,-0.4783,-0.4781,-0.4783,-0.48,-0.4787,-0.48,-0.4809,-0.4791,-0.4812,-0.4809,-0.4816,-0.4816,-0.4833,-0.4812,-0.4826,-0.483,-0.4834,-0.4839,-0.4727,-0.4835,-0.4834,-0.4834,-0.4833,-0.4833,0,-0.4872,-0.4865,-0.4878,-0.488,-0.4891,-0.4861,-0.4862,-0.4873,-0.4891,-0.489,-0.49,-0.4919,-0.4933,-0.4919,-0.4931,-0.4947,-0.4934,-0.4951,-0.4949,-0.4949,-0.4858,-0.4848,-0.4961,-0.4961,-0.4961,-0.4961,-0.4961,-0.4961,-0.4933,-0.4966,-0.4952,-0.4983,-0.4976,-0.4995,-0.4998,-0.5,-0.4998,-0.5021,-0.5031,-0.5022,-0.5016,-0.5026,-0.5038,-0.5034,-0.504,-0.5061,-0.5052,-0.4968,-0.4955,-0.4943,-0.4933,-0.5063,-0.5063,-0.5141,-0.5142,-0.5143]}]]